Weather History for Wausau, WI

Change the Weather History Date:

Monday, September 10, 2012

  Actual Average Record
Temperature  
Mean Temperature 60 °F 61 °F  
Max Temperature 76 °F 71 °F 99 °F (1931)
Min Temperature 43 °F 51 °F 29 °F (1917)
Degree Days  
Heating Degree Days 5 5  
Month to date heating degree days 24 42  
Since 1 July heating degree days 43 108  
Cooling Degree Days 0 1  
Month to date cooling degree days 34 19  
Year to date cooling degree days 720 394  
Growing Degree Days 9 (Base 50)    
Moisture  
Dew Point 48 °F    
Average Humidity 69    
Maximum Humidity 100    
Minimum Humidity 38    
Precipitation  
Precipitation 0.00 in 0.13 in 2.43 in (1975)
Month to date precipitation 1.00 1.30  
Year to date precipitation 20.48 23.51  
Snow  
Snow 0.00 in 0.00 in 0.00 in ()
Month to date snowfall 0.0 0.0  
Since 1 July snowfall 0.0 0.0  
Since 1 September snowfall 0.0 0.0  
Snow Depth 0.00 in    
Sea Level Pressure  
Sea Level Pressure 30.09 in    
Wind  
Wind Speed 8 mph (South)    
Max Wind Speed 20 mph    
Max Gust Speed 24 mph    
Visibility 10 miles    
Events      
T = Trace of Precipitation, MM = Missing Value Source: NWS Daily Summary

Daily Weather History Graph

Daily Weather History Graph

Search for Another Location

Airport:

Trip Planner

Search our weather history database for the weather conditions in past years. The results will help you decide how hot, cold, wet, or windy it might be!

Date:

Astronomy

Sep. 10, 2012 Rise Set
Actual Time 6:31 AM CDT 7:17 PM CDT
Civil Twilight 6:02 AM CDT 7:47 PM CDT
Nautical Twilight 5:26 AM CDT 8:22 PM CDT
Astronomical Twilight 4:50 AM CDT 8:59 PM CDT
Moon 12:41 AM CDT (9/10) 3:57 PM CDT (9/10)
Length of Visible Light 13h 45m
Length of Day
12h 45m
Waning Crescent, 30% of the Moon is Illuminated
Sep 10
Waning Crescent
Sep 15
New
Sep 22
First Quarter
Sep 29
Full
Oct 8
Last Quarter

Hourly Weather History & Observations

Time (CDT) Temp. Windchill Dew Point Humidity Pressure Visibility Wind Dir Wind Speed Gust Speed Precip Events Conditions
12:54 AM 48.0 °F - 46.0 °F 93% 30.16 in 10.0 mi Calm Calm - N/A   Clear
1:54 AM 46.9 °F - 45.0 °F 93% 30.16 in 10.0 mi Calm Calm - N/A   Clear
2:54 AM 46.0 °F - 44.1 °F 93% 30.15 in 10.0 mi Calm Calm - N/A   Clear
3:54 AM 45.0 °F 42.6 °F 44.1 °F 97% 30.16 in 10.0 mi East 4.6 mph - N/A   Clear
4:54 AM 45.0 °F - 43.0 °F 93% 30.17 in 10.0 mi Calm Calm - N/A   Clear
5:54 AM 44.1 °F - 43.0 °F 96% 30.17 in 10.0 mi Calm Calm - N/A   Clear
6:54 AM 43.0 °F 41.3 °F 42.1 °F 97% 30.18 in 10.0 mi East 3.5 mph - N/A   Clear
7:54 AM 48.9 °F - 46.0 °F 90% 30.17 in 10.0 mi Calm Calm - N/A   Clear
8:54 AM 55.0 °F - 50.0 °F 83% 30.17 in 10.0 mi South 5.8 mph - N/A   Clear
9:54 AM 62.1 °F - 51.1 °F 67% 30.16 in 10.0 mi SSW 8.1 mph - N/A   Clear
10:54 AM 66.9 °F - 51.1 °F 57% 30.14 in 10.0 mi SSW 6.9 mph - N/A   Clear
11:54 AM 70.0 °F - 50.0 °F 49% 30.13 in 10.0 mi South 11.5 mph - N/A   Clear
12:54 PM 72.0 °F - 51.1 °F 48% 30.10 in 10.0 mi South 11.5 mph - N/A   Clear
1:54 PM 73.0 °F - 48.9 °F 42% 30.08 in 10.0 mi SSW 13.8 mph - N/A   Clear
2:54 PM 75.0 °F - 48.0 °F 38% 30.05 in 10.0 mi South 15.0 mph 21.9 mph N/A   Clear
3:54 PM 75.0 °F - 50.0 °F 41% 30.04 in 10.0 mi South 12.7 mph 20.7 mph N/A   Clear
4:54 PM 73.9 °F - 50.0 °F 43% 30.01 in 10.0 mi South 15.0 mph 23.0 mph N/A   Clear
5:54 PM 72.0 °F - 50.0 °F 46% 30.01 in 10.0 mi South 16.1 mph - N/A   Clear
6:54 PM 71.1 °F - 50.0 °F 47% 29.99 in 10.0 mi South 11.5 mph - N/A   Clear
7:54 PM 68.0 °F - 50.0 °F 52% 29.99 in 10.0 mi South 9.2 mph - N/A   Clear
8:54 PM 66.0 °F - 50.0 °F 56% 29.99 in 10.0 mi South 10.4 mph - N/A   Clear
9:54 PM 64.9 °F - 50.0 °F 58% 29.99 in 10.0 mi South 10.4 mph - N/A   Clear
10:54 PM 64.0 °F - 50.0 °F 60% 29.99 in 10.0 mi South 9.2 mph - N/A   Clear
11:54 PM 64.0 °F - 51.1 °F 63% 29.99 in 10.0 mi South 9.2 mph 17.3 mph N/A   Clear